• Processing (Info)

  • MPEC 2005-G18 : 2005 GL1

    The following Minor Planet Electronic Circular may be linked-to from your own Web pages, but must not otherwise be redistributed electronically.

    A form allowing access to any MPEC is at the bottom of this page.


    Read MPEC 2005-G17 Read MPEC 2005-G19


    M.P.E.C. 2005-G18                                Issued 2005 Apr. 3, 15:42 UT
    
         The Minor Planet Electronic Circulars contain information on unusual
             minor planets and routine data on comets.  They are published
       on behalf of Commission 20 of the International Astronomical Union by the
              Minor Planet Center, Smithsonian Astrophysical Observatory,
                              Cambridge, MA 02138, U.S.A.
    
                      Supported in part by the Brinson Foundation
                 Prepared using the Tamkin Foundation Computer Network
    
                                  MPC@CFA.HARVARD.EDU
              URL http://cfa-www.harvard.edu/iau/mpc.html  ISSN 1523-6714
    
                                       2005 GL1
    
    Observations:
         K05G01L* C2005 04 02.19888 12 05 07.38 -00 17 09.1          20.0 R EG018G96
         K05G01L  C2005 04 02.20417 12 05 07.83 -00 17 06.8          20.3 R EG018G96
         K05G01L  C2005 04 02.20951 12 05 08.25 -00 17 05.1          20.3 R EG018G96
         K05G01L  C2005 04 02.21480 12 05 08.69 -00 17 03.1          19.8 R EG018G96
         K05G01L  C2005 04 02.26348 12 05 12.75 -00 16 44.6          20.3 R EG018G96
         K05G01L  C2005 04 02.26998 12 05 13.35 -00 16 42.1          19.9 R EG018G96
         K05G01L  C2005 04 02.27645 12 05 13.84 -00 16 39.7          20.0 R EG018G96
         K05G01L  C2005 04 02.28296 12 05 14.37 -00 16 37.2          19.7 R EG018G96
         K05G01L  C2005 04 02.36067 12 05 20.85 -00 16 07.9          20.4 R EG018G96
         K05G01L  C2005 04 02.36600 12 05 21.28 -00 16 06.1          19.8 R EG018G96
         K05G01L  C2005 04 02.37137 12 05 21.76 -00 16 04.1          20.3 R EG018G96
         K05G01L  C2005 04 02.37668 12 05 22.18 -00 16 01.7          20.5 R EG018G96
         K05G01L 1C2005 04 02.56672 12 05 41.54 -00 14 11.6          20.3 R EG018413
         K05G01L 1C2005 04 02.57221 12 05 42.02 -00 14 09.7          20.8 R EG018413
         K05G01L  C2005 04 02.84902 12 06 09.78 -00 13 11.0                 EG018246
         K05G01L  C2005 04 02.85105 12 06 10.04 -00 13 10.7                 EG018246
         K05G01L  C2005 04 02.85259 12 06 10.20 -00 13 08.6                 EG018246
         K05G01L  C2005 04 02.85348 12 06 10.26 -00 13 09.9                 EG018246
         K05G01L 1C2005 04 03.53473 12 07 16.668-00 08 08.08         20.3 R EG018413
         K05G01L 1C2005 04 03.54132 12 07 17.240-00 08 05.74         20.4 R EG018413
    
    Observer details:
    246 Klet Observatory-KLENOT.  Observers J. Ticha, M. Tichy.  Measurer M. Tichy.
        1.06-m KLENOT Telescope + CCD.
    413 Siding Spring.  Observer R. H. McNaught.  1.0-m f/8 reflector + CCD.
    G96 Mt. Lemmon Survey.  Observer C. Casey.  Measurers E. C. Beshore,
        C. M. Casey, E. J. Christensen, G. J. Garradd, R. E. Hill, S. M. Larson,
        R. H. McNaught.  1.5-m reflector + CCD.
    
    Orbital elements:
    2005 GL1
    Epoch 2005 Mar. 31.0 TT = JDT 2453460.5                 MPC
    M 354.74487              (2000.0)            P               Q
    n   0.25300069     Peri.   17.37977     -0.89250674     +0.45093796
    a   2.4758343      Node   189.44031     -0.42026743     -0.83894154
    e   0.5070738      Incl.    3.25394     -0.16372844     -0.30468354
    P   3.90           H   22.6           G   0.15
    From 20 observations 2005 Apr. 2-3.
    
    Ephemeris:
    2005 GL1                 a,e,i = 2.48, 0.51, 3                   q = 1.2204
    Date    TT    R. A. (2000) Decl.     Delta      r     Elong.  Phase     V
    2005 03 31    12 01.71   -00 30.8    0.246    1.242   170.3     7.8    20.6
    2005 04 10    12 18.91   +00 28.6    0.232    1.226   163.8    13.2    20.6
    2005 04 20    12 40.59   +01 02.9    0.229    1.220   158.4    17.6    20.8
    2005 04 30    13 05.62   +00 55.0    0.237    1.225   154.1    21.1    20.9
    2005 05 10    13 31.96   +00 01.2    0.256    1.239   150.6    23.6    21.2
    2005 05 20    13 58.01   -01 32.3    0.286    1.262   147.6    25.4    21.6
    2005 05 30    14 22.68   -03 31.3    0.327    1.294   144.6    27.0    21.9
    
    Timothy B. Spahr             (C) Copyright 2005 MPC           M.P.E.C. 2005-G18
    

    Read MPEC 2005-G17 Read MPEC 2005-G19


    MPEC number:

    Enter an MPEC number in one of the following forms:

    • 1997-B01 (the full form)
    • J97B01 (the packed version of the full form)
    • B01 (the abbreviated form)